Flag for Canada Weather past 2 weeks in Nanaimo, British Columbia, Canada

Now
60 °F

Cool.


Feels Like: 60 °F
Forecast: 57 / 68 °F
Wind: 7 mph from East

Location: Entrance Island

Current Time: Jul 24, 2014 at 11:33:15 AM

Latest Report: Jul 24, 2014 at 11:00 AM


Visibility: N/A

Pressure: 30.10 "Hg

Humidity: 83%

Dew point: 55 °F

Location of NanaimoLocation

Historic Weather in Nanaimo — Graph

°F

Nanaimo temperature yesterday

Maximum temperature yesterday: 64 °F (at 4:00 PM)
Minimum temperature yesterday: 58 °F (at 11:00 PM)
Average temperature yesterday: 60 °F

Past Weeks' High & Low Weather Summary

 TemperatureHumidityPressure
High79 °F (Jul 14, 6:00 PM)93% (Jul 19, 4:00 AM)30.12 "Hg (Jul 19, 4:00 AM)
Low57 °F (Jul 24, 5:00 AM)44% (Jul 14, 6:00 PM)29.86 "Hg (Jul 19, 8:00 PM)
Average66 °F71%29.98 "Hg
* Reported Jul 9 10:00 AM — Jul 24 10:00 AM, Nanaimo, Weather by CustomWeather, © 2014

Note: Actual official high and low records may vary slightly from our data, if they occured in-between our weather recording intervals... More about our weather records

Advertising

Nanaimo weather history for previous 24 hours

 ConditionsComfort  
Time TempWeatherWind HumidityBarometerVisibility
10:00 AM
Jul 24
58 °FCool.8 mph84%30.08 "HgN/A
9:00 AM58 °FCool.5 mph84%30.06 "HgN/A
8:00 AM57 °FCool.No wind84%30.04 "HgN/A
7:00 AM57 °FCool.5 mph82%30.02 "HgN/A
6:00 AM57 °FCool.10 mph88%30.00 "HgN/A
5:00 AM57 °FCool.9 mph88%30.00 "HgN/A
4:00 AM57 °FCool.9 mph88%30.00 "HgN/A
3:00 AM57 °FCool.8 mph89%30.01 "HgN/A
2:00 AM58 °FCool.8 mph88%30.00 "HgN/A
1:00 AM58 °FCool.6 mph88%30.00 "HgN/A
12:00 AM58 °FCool.8 mph88%30.00 "HgN/A
11:00 PM
Jul 23
58 °FCool.9 mph87%30.00 "HgN/A
10:00 PM58 °FCool.10 mph87%30.00 "HgN/A
9:00 PM59 °FCool.2 mph84%30.00 "HgN/A
8:00 PM60 °FCool.9 mph80%29.98 "HgN/A
7:00 PM60 °FCool.2 mph85%29.95 "HgN/A
6:00 PM61 °FCool.1 mph88%29.96 "HgN/A
5:00 PM61 °FCool.8 mph87%29.95 "HgN/A
4:00 PM64 °FMild.10 mph74%29.94 "HgN/A
3:00 PM62 °FMild.8 mph84%29.96 "HgN/A
2:00 PM62 °FCool.13 mph86%29.96 "HgN/A
1:00 PM62 °FCool.10 mph86%29.96 "HgN/A
12:00 PM61 °FCool.3 mph83%29.97 "HgN/A
11:00 AM62 °FCool.No wind79%29.96 "HgN/A
Weather by CustomWeather, © 2014

See weather overviewHow to use our weather pages